TimeEDT,TemperatureF,Dew PointF,Humidity,Sea Level PressureIn,VisibilityMPH,Wind Direction,Wind SpeedMPH,Gust SpeedMPH,PrecipitationIn,Events,Conditions,WindDirDegrees,DateUTC
12:01 AM,55.4,53.6,94,29.80,10.0,WNW,13.8,18.4,N/A,,Overcast,300,2013-09-22 04:01:00
12:14 AM,55.4,53.6,94,29.80,10.0,WNW,11.5,-,N/A,,Overcast,300,2013-09-22 04:14:00
12:54 AM,54.0,53.1,97,29.78,10.0,NW,8.1,-,N/A,,Overcast,310,2013-09-22 04:54:00
1:09 AM,53.6,51.8,94,29.80,10.0,NNW,9.2,-,N/A,,Overcast,340,2013-09-22 05:09:00
1:29 AM,53.6,51.8,94,29.81,10.0,NNW,10.4,-,N/A,,Mostly Cloudy,330,2013-09-22 05:29:00
1:54 AM,52.0,50.0,93,29.81,10.0,NW,5.8,-,N/A,,Scattered Clouds,320,2013-09-22 05:54:00
2:54 AM,50.0,48.9,96,29.81,10.0,NW,8.1,-,N/A,,Partly Cloudy,310,2013-09-22 06:54:00
3:31 AM,51.8,50.0,94,29.81,10.0,WNW,5.8,-,N/A,,Mostly Cloudy,300,2013-09-22 07:31:00
3:39 AM,51.8,50.0,94,29.81,10.0,NW,8.1,-,N/A,,Overcast,310,2013-09-22 07:39:00
3:54 AM,51.1,50.0,96,29.81,10.0,WNW,3.5,-,N/A,,Overcast,300,2013-09-22 07:54:00
4:05 AM,51.8,50.0,94,29.82,10.0,WNW,4.6,-,N/A,,Mostly Cloudy,290,2013-09-22 08:05:00
4:14 AM,50.0,50.0,100,29.82,10.0,West,4.6,-,N/A,,Mostly Cloudy,280,2013-09-22 08:14:00
4:26 AM,51.8,50.0,94,29.82,10.0,WNW,3.5,-,N/A,,Overcast,290,2013-09-22 08:26:00
4:45 AM,50.0,50.0,100,29.83,10.0,NW,3.5,-,N/A,,Overcast,310,2013-09-22 08:45:00
4:54 AM,50.0,50.0,100,29.83,10.0,WNW,3.5,-,N/A,,Overcast,300,2013-09-22 08:54:00
5:54 AM,50.0,50.0,100,29.84,9.0,WNW,4.6,-,N/A,,Overcast,290,2013-09-22 09:54:00
6:26 AM,51.8,50.0,94,29.84,10.0,NW,5.8,-,0.00,,Overcast,310,2013-09-22 10:26:00
6:52 AM,50.0,48.2,94,29.85,10.0,NNW,6.9,-,0.01,Rain,Light Rain,330,2013-09-22 10:52:00
6:54 AM,50.0,48.9,96,29.85,10.0,NNW,5.8,-,0.01,Rain,Light Rain,330,2013-09-22 10:54:00
7:01 AM,50.0,48.2,94,29.85,6.0,NNW,5.8,-,0.00,Rain,Light Rain,330,2013-09-22 11:01:00
7:33 AM,50.0,48.2,94,29.86,10.0,NNW,5.8,-,0.00,,Overcast,330,2013-09-22 11:33:00
7:54 AM,50.0,48.9,96,29.87,10.0,NNW,5.8,-,0.00,,Overcast,340,2013-09-22 11:54:00
8:02 AM,50.0,48.2,94,29.87,10.0,NNW,6.9,-,N/A,,Overcast,340,2013-09-22 12:02:00
8:44 AM,50.0,48.2,94,29.88,10.0,North,6.9,-,N/A,,Overcast,350,2013-09-22 12:44:00
8:54 AM,50.0,48.9,96,29.88,10.0,North,5.8,-,N/A,,Overcast,360,2013-09-22 12:54:00
9:54 AM,51.1,48.9,92,29.91,10.0,NW,6.9,-,N/A,,Overcast,320,2013-09-22 13:54:00
10:17 AM,51.8,48.2,88,29.91,10.0,NW,6.9,-,N/A,,Overcast,310,2013-09-22 14:17:00
10:45 AM,51.8,48.2,88,29.91,10.0,NW,6.9,-,N/A,,Overcast,320,2013-09-22 14:45:00
10:54 AM,51.1,48.0,89,29.91,10.0,NNW,10.4,-,N/A,,Overcast,340,2013-09-22 14:54:00
11:54 AM,52.0,46.9,83,29.92,10.0,NW,8.1,-,N/A,,Overcast,310,2013-09-22 15:54:00
12:32 PM,53.6,46.4,77,29.92,10.0,NW,10.4,-,N/A,,Overcast,320,2013-09-22 16:32:00
12:54 PM,54.0,45.0,72,29.92,10.0,WNW,8.1,-,N/A,,Overcast,300,2013-09-22 16:54:00
1:54 PM,57.0,44.1,62,29.91,10.0,WNW,10.4,-,N/A,,Scattered Clouds,300,2013-09-22 17:54:00
2:54 PM,55.9,46.0,69,29.91,10.0,North,10.4,-,N/A,,Overcast,350,2013-09-22 18:54:00
3:17 PM,53.6,46.4,77,29.92,10.0,NW,11.5,-,N/A,,Overcast,320,2013-09-22 19:17:00
3:27 PM,53.6,46.4,77,29.92,10.0,NW,11.5,-,N/A,,Overcast,310,2013-09-22 19:27:00
3:54 PM,54.0,45.0,72,29.92,10.0,NW,15.0,-,N/A,,Overcast,310,2013-09-22 19:54:00
4:54 PM,53.1,45.0,74,29.94,10.0,WNW,12.7,-,N/A,,Overcast,300,2013-09-22 20:54:00
5:54 PM,52.0,44.1,74,29.95,10.0,WNW,10.4,-,N/A,,Overcast,300,2013-09-22 21:54:00
6:54 PM,51.1,45.0,80,29.96,10.0,NW,8.1,-,N/A,,Overcast,310,2013-09-22 22:54:00
7:13 PM,51.8,44.6,76,29.95,10.0,NW,8.1,-,N/A,,Overcast,310,2013-09-22 23:13:00
7:54 PM,50.0,45.0,83,29.98,10.0,NNW,6.9,-,N/A,,Overcast,340,2013-09-22 23:54:00
8:08 PM,50.0,44.6,82,29.97,10.0,NNW,8.1,-,N/A,,Overcast,330,2013-09-23 00:08:00
8:21 PM,50.0,44.6,82,29.98,10.0,NNW,9.2,-,N/A,,Overcast,330,2013-09-23 00:21:00
8:45 PM,48.2,44.6,87,29.98,10.0,NW,9.2,-,N/A,,Overcast,320,2013-09-23 00:45:00
8:54 PM,48.9,44.1,83,30.00,10.0,NNW,8.1,-,N/A,,Overcast,330,2013-09-23 00:54:00
9:54 PM,48.0,44.1,86,30.01,10.0,NNW,9.2,-,N/A,,Overcast,340,2013-09-23 01:54:00
10:54 PM,48.0,44.1,86,30.02,10.0,North,6.9,-,N/A,,Overcast,360,2013-09-23 02:54:00
11:15 PM,48.2,44.6,87,30.01,10.0,NNW,6.9,-,N/A,,Overcast,330,2013-09-23 03:15:00
11:54 PM,48.0,44.1,86,30.02,10.0,North,9.2,-,N/A,,Overcast,350,2013-09-23 03:54:00